STARLINK-32223, 60373

Orbit data source: Space-Track

STARLINK-32223, 60373 is a payload satellite owned by SpaceX/Seattle (US) in LEO that was launched on Sun, 04 Aug 2024 UTC via an FALCON 9 launch vehicle from the Air Force Western Test Range (AFWTR). Payload-class satellites include a variety of spacecraft equipped with specific instruments for various scientific and technological missions. These include communications satellites like Starlink; space stations such as the ISS; scientific satellites like the Hubble; Earth observation satellites from companies like Planet Labs, Umbra, and HawkEye 360; GPS; miniature CubeSats for education and research; and military/defense satellites.

Loading next visibility...
Identifier
60373, 2024-138U
Orbit
LEO
Country
Flag of USUS
Related business
Manufacturer
SpaceX/Seattle
Mission
Operational Commercial Communications
Bus & Motor
STARLINK V2M, Unknown motor
Mass
730 kg wet, ~700 kg dry
Launch date (UTC)
2024-08-04 (1 year ago)
Launch vehicle
FALCON 9
Launch site
Air Force Western Test Range (AFWTR)
Object type
Payload
Rocket body
Debris
Shape & HBR
Box + 2 Pan, 17.7 m
Radar Cross Section
33.884 m², Large (>1 m²)

Expand to show TLE details & history
Last TLE update: 7 hours ago

TLE from 7 hours ago
0 STARLINK-32223
1 60373U 24138U   25354.18285196  .00001631  00000-0  67220-4 0  9998
2 60373  53.1611 318.9816 0002168  90.6474 269.4775 15.30192888 78359
Epoch: 2025-12-20T04:23Z
TLE epoch observation values (Epoch: 2025-12-20T04:23:18.409Z)
Latitude
-0.00003°
Longitude
164.14156°
Altitude
476.15 km
Speed
7.629 km/s
True Right ascension
21h 15m 55s
True Declination
0° 00' 00"
Sunlit
Object was in daylight at epoch
Visualization orbit readout
Latitude
Unknown
Longitude
Unknown
Altitude
Unknown
Speed
Unknown
Apparent Right ascension
Unknown
Apparent Declination
Unknown
Sunlit
N/A
Visualization observer readout
Local Sidereal Time
09:57:41
Azimuth
Unknown
Elevation
Unknown
Doppler factor
Unknown
Orbital elements
Apogee altitude
476.978 km
Perigee altitude
474.007 km
Semi-major axis
6,853.63 km
Eccentricity
0.00022
Inclination
53.1611°
RAAN
318.9816°
Arg. of periapsis
90.6474°
True anomaly
269.45266°
Mean anomaly
269.4775°
Eccentric anomaly
269.46508°
Mean motion
3.82527 °/min
Orbital period
94.11 mins
BSTAR
0.00006722
Loading maneuver chart data...
Computing Atmospheric mass density...
Loading historical data...
Loading historical data...
Loading historical data...
Loading historical data...
Loading historical data...
Loading historical data...
Loading historical data...

Documentation

Showing up to 5 results
|